Location: Bremen
(53.0793°N, 8.8017°E)
Time: 23:07:51
(UTC+02:00)

Vanguard 2 Rocket - Pass Details

Date: 14 April 2024
Orbit: 556 x 3304 km, 32.9° (Epoch: 20 May)

Event Time Altitude Azimuth Distance (km) Brightness Sun altitude
Rises 04:52:00 0° 264° (W) 7,200 - -13.5°
Reaches altitude 10° 04:58:10 10° 254° (WSW) 5,957 - -12.8°
Exits shadow 04:58:50 11° 253° (WSW) 5,824 10.4 -12.7°
Maximum altitude 05:11:14 27° 207° (SSW) 3,873 9.6 -11.2°
Drops below altitude 10° 05:20:36 10° 156° (SSE) 4,187 10.2 -10.0°
Sets 05:24:02 0° 144° (SE) 4,794 10.7 -9.5°
